Location: Unspecified
(0.0000°N, 0.0000°E)
Time: 07:48:32
(UTC+00:00)

Vanguard 2 Rocket - Pass Details

Date: 03 October 2023
Orbit: 552 x 3312 km, 32.9° (Epoch: 06 December)

Event Time Altitude Azimuth Distance (km) Brightness Sun altitude
Rises 13:15:37 0° 316° (NW) 6,987 11.6 68.0°
Reaches altitude 10° 13:22:03 10° 329° (NNW) 6,179 11.4 66.4°
Maximum altitude 13:36:41 24° 16° (NNE) 5,064 10.9 62.8°
Drops below altitude 10° 13:49:44 10° 63° (ENE) 5,557 10.7 59.6°
Sets 13:54:56 0° 77° (ENE) 6,180 10.8 58.3°
